W0AVQ Weather Reports


time (UTC)temp
C
wind
direction
speed
KPH
gust
KPH
rain 1hr
cm
rain 24hr
cm
rain mn
cm
humidity
%
barometer
mb
20260906134509 27 29 0.0 0.0 0.00 0.00 0.00 88 1016.4
20260906134008 28 288 0.0 0.0 0.00 0.00 0.00 88 1016.2
20260906133504 28 189 0.0 0.0 0.00 0.00 0.00 89 1016.2
20260906133000 27 100 0.0 0.0 0.00 0.00 0.00 89 1016.3
20260906132454 27 40 0.0 0.0 0.00 0.00 0.00 91 1016.3
20260906131950 27 317 0.0 0.0 0.00 0.00 0.00 91 1016.4
20260906131445 26 291 0.0 0.0 0.00 0.00 0.00 93 1016.2
20260906130941 26 42 0.0 0.0 0.00 0.00 0.00 95 1016.2
20260906130440 26 273 0.0 0.0 0.00 0.00 0.00 95 1016.1
20260906125935 26 268 0.0 0.0 0.00 0.00 0.00 96 1016.2
20260906125431 26 333 0.0 0.0 0.00 0.00 0.00 96 1016.2
20260906124926 26 350 0.0 0.0 0.00 0.00 0.00 96 1016.2
20260906124422 26 275 0.0 0.0 0.00 0.00 0.00 97 1016.1
20260906123916 25 285 0.0 0.0 0.00 0.00 0.00 98 1016.1
20260906123416 25 8 0.0 0.0 0.00 0.00 0.00 98 1016.0
20260906122916 25 255 0.0 0.0 0.00 0.00 0.00 99 1016.2
20260906122411 25 336 0.0 0.0 0.00 0.00 0.00 99 1016.0
20260906121908 25 279 0.0 0.0 0.00 0.00 0.00 99 1016.0
20260906121403 25 342 0.0 0.0 0.00 0.00 0.00 99 1016.0
20260906120859 25 75 0.0 0.0 0.00 0.00 0.00 99 1015.9
20260906120355 25 267 0.0 0.0 0.00 0.00 0.00 99 1015.7
20260906115851 25 307 0.0 0.0 0.00 0.00 0.00 99 1015.7
20260906115346 25 266 0.0 0.0 0.00 0.00 0.00 99 1015.4
20260906114845 25 278 0.0 0.0 0.00 0.00 0.00 99 1015.5
20260906114340 25 272 0.0 0.0 0.00 0.00 0.00 99 1015.3
20260906113835 25 265 0.0 0.0 0.00 0.00 0.00 99 1015.5
20260906113334 25 256 0.0 0.0 0.00 0.00 0.00 99 1015.2
20260906112830 25 262 0.0 0.0 0.00 0.00 0.00 99 1015.1
20260906112326 25 265 0.0 0.0 0.00 0.00 0.00 99 1015.3
20260906111826 25 253 0.0 0.0 0.00 0.00 0.00 99 1015.2
20260906111320 25 251 0.0 0.0 0.00 0.00 0.00 99 1015.2
20260906110815 25 272 0.0 0.0 0.00 0.00 0.00 99 1015.2
20260906110311 25 287 0.0 0.0 0.00 0.00 0.00 98 1015.3
20260906105810 25 319 0.0 0.0 0.00 0.00 0.00 99 1015.1
20260906105306 25 352 0.0 0.0 0.00 0.00 0.00 99 1014.9
20260906104801 25 253 0.0 0.0 0.00 0.00 0.00 98 1015.0
20260906104300 25 260 0.0 0.0 0.00 0.00 0.00 98 1014.7
20260906103758 25 251 0.0 0.0 0.00 0.00 0.00 98 1014.8
20260906103257 25 300 0.0 0.0 0.00 0.00 0.00 98 1014.8
20260906102754 25 257 0.0 0.0 0.00 0.00 0.00 98 1014.8
20260906102252 25 272 0.0 0.0 0.00 0.00 0.00 98 1014.9
20260906101748 25 282 0.0 0.0 0.00 0.00 0.00 98 1014.4
20260906101242 25 256 0.0 0.0 0.00 0.00 0.00 98 1014.4
20260906100738 25 336 0.0 0.0 0.00 0.00 0.00 98 1014.4
20260906100237 25 247 0.0 0.0 0.00 0.00 0.00 98 1014.5
20260906095733 25 253 0.0 0.0 0.00 0.00 0.00 98 1014.3
20260906095228 25 251 0.0 0.0 0.00 0.00 0.00 98 1014.5
20260906094727 24 247 0.0 0.0 0.00 0.00 0.00 98 1014.2
20260906094222 24 265 0.0 0.0 0.00 0.00 0.00 98 1014.1
20260906093718 24 266 0.0 0.0 0.00 0.00 0.00 99 1014.0
20260906093208 24 262 0.0 0.0 0.00 0.00 0.00 99 1014.0
20260906092703 24 321 0.0 0.0 0.00 0.00 0.00 99 1014.2
20260906092202 23 255 0.0 0.0 0.00 0.00 0.00 99 1014.1
20260906091659 23 262 0.0 0.0 0.00 0.00 0.00 99 1014.1
20260906091155 23 251 0.0 0.0 0.00 0.00 0.00 99 1014.3
20260906090651 23 247 0.0 0.0 0.00 0.00 0.00 99 1014.3
20260906090150 23 268 0.0 0.0 0.00 0.00 0.00 99 1014.0
20260906085649 23 268 0.0 0.0 0.00 0.00 0.00 99 1014.0
20260906085143 23 257 0.0 0.0 0.00 0.00 0.00 99 1014.1
20260906084638 23 270 0.0 0.0 0.00 0.00 0.00 99 1014.0
20260906084137 23 254 0.0 0.0 0.00 0.00 0.00 99 1014.1
20260906083632 23 254 0.0 0.0 0.00 0.00 0.00 99 1014.0
20260906083127 23 253 0.0 0.0 0.00 0.00 0.00 99 1014.1
20260906082623 23 253 0.0 0.0 0.00 0.00 0.00 99 1014.1
20260906082118 23 253 0.0 0.0 0.00 0.00 0.00 99 1014.1
20260906081614 23 253 0.0 0.0 0.00 0.00 0.00 99 1014.0
20260906081109 23 253 0.0 0.0 0.00 0.00 0.00 99 1014.0
20260906080605 23 224 0.0 0.0 0.00 0.00 0.00 99 1014.0
20260906075555 23 248 0.0 0.0 0.00 0.00 0.00 99 1014.0
20260906075050 23 257 0.0 0.0 0.00 0.00 0.00 99 1014.0
20260906074545 23 257 0.0 0.0 0.00 0.00 0.00 99 1014.1
20260906074043 23 257 0.0 0.0 0.00 0.00 0.00 99 1014.1
20260906073538 23 258 0.0 0.0 0.00 0.00 0.00 99 1014.2
20260906073035 24 258 0.0 0.0 0.00 0.00 0.00 99 1014.1
20260906072529 24 258 0.0 0.0 0.00 0.00 0.00 99 1014.2
20260906072026 24 258 0.0 0.0 0.00 0.00 0.00 99 1014.4
20260906071521 24 253 0.0 0.0 0.00 0.00 0.00 99 1014.2
20260906071016 24 253 0.0 0.0 0.00 0.00 0.00 99 1014.2
20260906070513 24 254 0.0 0.0 0.00 0.00 0.00 99 1014.2
20260906070008 24 254 0.0 0.0 0.00 0.00 0.00 99 1014.2
20260906065502 24 254 0.0 0.0 0.00 0.00 0.00 99 1014.2
20260906064957 24 254 0.0 0.0 0.00 0.00 0.00 99 1014.3
20260906064453 24 253 0.0 0.0 0.00 0.00 0.00 99 1014.6
20260906063948 24 262 0.0 0.0 0.00 0.00 0.00 99 1014.6
20260906063444 24 263 0.0 0.0 0.00 0.00 0.00 99 1014.5
20260906062944 24 256 0.0 0.0 0.00 0.00 0.00 99 1014.3
20260906062439 24 255 0.0 0.0 0.00 0.00 0.00 99 1014.6
20260906061934 24 255 0.0 0.0 0.00 0.00 0.00 99 1014.4
20260906061430 24 255 0.0 0.0 0.00 0.00 0.00 99 1014.6
20260906060930 24 256 0.0 0.0 0.00 0.00 0.00 99 1014.6
20260906060427 24 256 0.0 0.0 0.00 0.00 0.00 99 1014.7
20260906055923 24 256 0.0 0.0 0.00 0.00 0.00 99 1014.5
20260906055419 24 250 0.0 0.0 0.00 0.00 0.00 99 1014.5
20260906054914 24 249 0.0 0.0 0.00 0.00 0.00 99 1014.8
20260906054409 24 251 0.0 0.0 0.00 0.00 0.00 99 1014.5
20260906053905 24 260 0.0 0.0 0.00 0.00 0.00 99 1014.7
20260906053401 24 257 0.0 0.0 0.00 0.00 0.00 99 1014.6
20260906052856 24 257 0.0 0.0 0.00 0.00 0.00 99 1014.7
20260906052352 24 257 0.0 0.0 0.00 0.00 0.00 99 1014.9
20260906051849 24 257 0.0 0.0 0.00 0.00 0.00 98 1014.8
20260906051348 24 257 0.0 0.0 0.00 0.00 0.00 98 1014.7
20260906050844 24 264 0.0 0.0 0.00 0.00 0.00 98 1014.9
20260906050339 24 264 0.0 0.0 0.00 0.00 0.00 98 1014.7
20260906045838 24 264 0.0 0.0 0.00 0.00 0.00 98 1014.6
20260906045332 24 264 0.0 0.0 0.00 0.00 0.00 98 1014.7
20260906044829 24 264 0.0 0.0 0.00 0.00 0.00 97 1014.6
20260906044323 24 264 0.0 0.0 0.00 0.00 0.00 97 1014.7
20260906043819 25 264 0.0 0.0 0.00 0.00 0.00 97 1014.7
20260906043314 25 264 0.0 0.0 0.00 0.00 0.00 97 1014.9
20260906042809 25 270 0.0 0.0 0.00 0.00 0.00 97 1014.7
20260906042308 25 249 0.0 0.0 0.00 0.00 0.00 97 1014.4
20260906041803 25 258 0.0 0.0 0.00 0.00 0.00 97 1014.7
20260906041259 25 260 0.0 0.0 0.00 0.00 0.00 97 1014.8
20260906040754 25 247 0.0 0.0 0.00 0.00 0.00 96 1014.7
20260906040249 25 247 0.0 0.0 0.00 0.00 0.00 96 1014.4
20260906035744 25 251 0.0 0.0 0.00 0.00 0.00 96 1014.6
20260906035240 25 252 0.0 0.0 0.00 0.00 0.00 96 1014.6
20260906034740 25 250 0.0 0.0 0.00 0.00 0.00 95 1014.4
20260906034235 25 238 0.0 0.0 0.00 0.00 0.00 95 1014.4
20260906033731 25 244 0.0 0.0 0.00 0.00 0.00 94 1014.5
20260906033230 25 245 0.0 0.0 0.00 0.00 0.00 94 1014.4
20260906032727 25 262 0.0 0.0 0.00 0.00 0.00 94 1014.4
20260906032227 25 262 0.0 0.0 0.00 0.00 0.00 93 1014.2
20260906031722 25 262 0.0 0.0 0.00 0.00 0.00 93 1014.3
20260906031218 25 263 0.0 0.0 0.00 0.00 0.00 93 1014.3
20260906030717 25 262 0.0 0.0 0.00 0.00 0.00 93 1014.2
20260906030212 25 254 0.0 0.0 0.00 0.00 0.00 92 1014.3
20260906025712 25 258 0.0 0.0 0.00 0.00 0.00 92 1014.2
20260906025206 26 258 0.0 0.0 0.00 0.00 0.00 92 1014.4
20260906024700 25 314 0.0 0.0 0.00 0.00 0.00 92 1014.1
20260906024159 25 257 0.0 0.0 0.00 0.00 0.00 91 1013.9
20260906023655 25 257 0.0 0.0 0.00 0.00 0.00 91 1014.2
20260906023155 26 248 0.0 0.0 0.00 0.00 0.00 90 1013.9
20260906022650 26 246 0.0 0.0 0.00 0.00 0.00 90 1013.8
20260906022146 26 250 0.0 0.0 0.00 0.00 0.00 90 1014.0
20260906021642 26 249 0.0 0.0 0.00 0.00 0.00 90 1013.9
20260906021140 26 246 0.0 0.0 0.00 0.00 0.00 89 1014.0
20260906020635 26 252 0.0 0.0 0.00 0.00 0.00 89 1013.8
20260906020130 26 254 0.0 0.0 0.00 0.00 0.00 88 1013.9
20260906015624 26 254 0.0 0.0 0.00 0.00 0.00 88 1013.8
20260906015122 26 253 0.0 0.0 0.00 0.00 0.00 88 1013.9
20260906014617 26 253 0.0 0.0 0.00 0.00 0.00 88 1013.7
20260906014114 26 254 0.0 0.0 0.00 0.00 0.00 87 1013.8
20260906013609 26 251 0.0 0.0 0.00 0.00 0.00 87 1013.7
20260906013104 27 249 0.0 0.0 0.00 0.00 0.00 86 1013.6
20260906012559 27 249 0.0 0.0 0.00 0.00 0.00 86 1013.5
20260906012059 27 242 0.0 0.0 0.00 0.00 0.00 85 1013.7
20260906011555 27 294 0.0 0.0 0.00 0.00 0.00 85 1013.4
20260906011049 27 246 0.0 0.0 0.00 0.00 0.00 84 1013.5
20260906010545 27 230 0.0 0.0 0.00 0.00 0.00 84 1013.6
20260906010041 27 253 0.0 0.0 0.00 0.00 0.00 81 1013.6
20260906005540 28 266 0.0 0.0 0.00 0.00 0.00 81 1013.3
20260906005039 28 269 0.0 0.0 0.00 0.00 0.00 81 1013.2
20260906004539 28 252 0.0 0.0 0.00 0.00 0.00 80 1013.4
20260906004034 28 235 0.0 0.0 0.00 0.00 0.00 79 1013.3
20260906003529 29 245 0.0 0.0 0.00 0.00 0.00 78 1013.1
20260906003025 30 240 0.0 0.0 0.00 0.00 0.00 75 1013.0
20260906002519 30 254 0.0 0.0 0.00 0.00 0.00 74 1013.2
20260906002014 30 247 0.0 0.0 0.00 0.00 0.00 71 1013.3
20260906001510 31 245 0.0 0.0 0.00 0.00 0.00 71 1013.4
20260906001004 31 252 0.0 0.0 0.00 0.00 0.00 68 1013.3
20260906000500 32 252 0.0 0.0 0.00 0.00 0.00 67 1013.5
20260906000000 32 252 0.0 0.0 0.00 0.00 0.00 66 1013.6
20260905235454 33 253 0.0 0.0 0.00 0.00 0.00 63 1013.7
20260905234949 33 252 0.0 0.0 0.00 0.00 0.00 61 1013.6
20260905234444 33 249 0.0 0.0 0.00 0.00 0.00 60 1013.5
20260905233938 34 295 0.0 0.0 0.00 0.00 0.00 58 1013.8
20260905233434 33 307 0.0 0.0 0.00 0.00 0.00 59 1013.5
20260905232933 33 280 0.0 0.0 0.00 0.00 0.00 58 1013.7
20260905232429 33 306 1.6 1.6 0.00 0.00 0.00 58 1013.6
20260905231925 33 311 1.6 3.2 0.00 0.00 0.00 59 1014.0
20260905231421 33 271 0.0 0.0 0.00 0.00 0.00 58 1013.8
20260905230917 33 271 1.6 3.2 0.00 0.00 0.00 59 1013.7
20260905230415 33 300 0.0 1.6 0.00 0.00 0.00 60 1013.6
20260905225914 33 264 0.0 1.6 0.00 0.00 0.00 60 1013.6
20260905225409 33 254 0.0 0.0 0.00 0.00 0.00 62 1013.5
20260905224904 33 280 0.0 0.0 0.00 0.00 0.00 60 1013.8
20260905224400 33 242 0.0 0.0 0.00 0.00 0.00 63 1013.5
20260905223854 32 271 0.0 1.6 0.00 0.00 0.00 61 1013.4
20260905223351 32 268 0.0 0.0 0.00 0.00 0.00 63 1013.4
20260905222846 32 257 0.0 0.0 0.00 0.00 0.00 64 1013.4
20260905222345 32 249 0.0 0.0 0.00 0.00 0.00 64 1013.5
20260905221841 32 295 0.0 0.0 0.00 0.00 0.00 63 1013.7
20260905221337 32 254 0.0 0.0 0.00 0.00 0.00 64 1013.6
20260905220833 32 263 0.0 0.0 0.00 0.00 0.00 63 1013.7
20260905220329 32 280 0.0 0.0 0.00 0.00 0.00 63 1014.0
20260905215828 32 259 0.0 0.0 0.00 0.00 0.00 63 1014.3
20260905215324 32 259 0.0 0.0 0.00 0.00 0.00 68 1014.1
20260905214821 33 254 0.0 0.0 0.00 0.00 0.00 73 1013.9
20260905214315 33 247 0.0 0.0 0.00 0.00 0.00 70 1013.6
20260905213810 33 246 0.0 0.0 0.00 0.00 0.00 70 1013.7
20260905213307 34 253 0.0 0.0 0.00 0.00 0.00 69 1013.8
20260905212801 34 270 0.0 0.0 0.00 0.00 0.00 66 1013.6
20260905212301 35 247 0.0 0.0 0.00 0.00 0.00 66 1013.8
20260905211756 35 256 0.0 0.0 0.00 0.00 0.00 65 1013.9
20260905211250 35 247 0.0 0.0 0.00 0.00 0.00 64 1014.0
20260905210747 35 247 0.0 0.0 0.00 0.00 0.00 63 1013.5
20260905210247 35 238 0.0 0.0 0.00 0.00 0.00 62 1013.6
20260905205745 35 236 0.0 0.0 0.00 0.00 0.00 64 1013.9
20260905205241 35 240 0.0 0.0 0.00 0.00 0.00 61 1014.0
20260905204740 35 244 0.0 0.0 0.00 0.00 0.00 63 1014.1
20260905204236 35 243 0.0 0.0 0.00 0.00 0.00 62 1013.9
20260905203735 35 267 0.0 0.0 0.00 0.00 0.00 60 1013.9
20260905203231 35 251 0.0 0.0 0.00 0.00 0.00 59 1014.1
20260905202726 35 246 0.0 0.0 0.00 0.00 0.00 59 1014.0
20260905202221 36 242 0.0 0.0 0.00 0.00 0.00 59 1014.0
20260905201716 36 243 0.0 0.0 0.00 0.00 0.00 57 1013.9
20260905201211 36 253 0.0 0.0 0.00 0.00 0.00 57 1014.1
20260905200706 36 226 0.0 0.0 0.00 0.00 0.00 55 1014.2
20260905200202 37 253 0.0 0.0 0.00 0.00 0.00 55 1014.1
20260905195155 37 266 0.0 0.0 0.00 0.00 0.00 52 1014.3
20260905194650 37 223 0.0 0.0 0.00 0.00 0.00 54 1014.4
20260905194149 37 236 0.0 0.0 0.00 0.00 0.00 52 1014.6
20260905193644 37 191 0.0 0.0 0.00 0.00 0.00 53 1014.4
20260905193139 38 324 0.0 0.0 0.00 0.00 0.00 51 1014.7
20260905192634 37 219 0.0 0.0 0.00 0.00 0.00 52 1014.6
20260905192131 38 340 0.0 0.0 0.00 0.00 0.00 52 1014.9
20260905191630 38 162 0.0 0.0 0.00 0.00 0.00 53 1014.7
20260905191129 37 199 0.0 0.0 0.00 0.00 0.00 51 1014.7
20260905190627 37 155 0.0 0.0 0.00 0.00 0.00 55 1014.7
20260905190127 37 200 0.0 0.0 0.00 0.00 0.00 54 1014.8
20260905185626 38 214 0.0 0.0 0.00 0.00 0.00 51 1014.9
20260905185120 38 192 0.0 0.0 0.00 0.00 0.00 51 1015.1
20260905184615 38 220 0.0 0.0 0.00 0.00 0.00 51 1015.1
20260905184114 38 230 0.0 0.0 0.00 0.00 0.00 53 1015.3
20260905183613 38 24 0.0 0.0 0.00 0.00 0.00 53 1015.1
20260905183109 37 276 0.0 0.0 0.00 0.00 0.00 54 1015.2
20260905182608 37 256 0.0 0.0 0.00 0.00 0.00 53 1015.3
20260905182103 37 202 0.0 0.0 0.00 0.00 0.00 53 1015.2
20260905181602 37 329 0.0 0.0 0.00 0.00 0.00 54 1015.3
20260905181102 37 321 0.0 0.0 0.00 0.00 0.00 55 1015.3
20260905180556 37 133 0.0 0.0 0.00 0.00 0.00 53 1015.5
20260905180052 36 249 0.0 0.0 0.00 0.00 0.00 54 1015.6
20260905175551 36 309 0.0 0.0 0.00 0.00 0.00 53 1015.6
20260905175047 36 186 0.0 0.0 0.00 0.00 0.00 54 1015.7
20260905174542 36 289 0.0 0.0 0.00 0.00 0.00 54 1015.8
20260905174037 36 276 0.0 0.0 0.00 0.00 0.00 52 1015.7
20260905173534 36 311 0.0 0.0 0.00 0.00 0.00 54 1015.9
20260905173029 36 342 0.0 0.0 0.00 0.00 0.00 55 1015.9
20260905172527 36 286 0.0 0.0 0.00 0.00 0.00 54 1015.9
20260905172023 36 325 0.0 0.0 0.00 0.00 0.00 54 1015.7
20260905171519 36 303 0.0 0.0 0.00 0.00 0.00 56 1015.7
20260905171015 35 12 0.0 0.0 0.00 0.00 0.00 55 1015.7
20260905170512 35 273 1.6 4.8 0.00 0.00 0.00 56 1016.0
20260905170007 35 244 0.0 0.0 0.00 0.00 0.00 57 1015.9
20260905165501 36 283 0.0 0.0 0.00 0.00 0.00 57 1016.1
20260905164956 36 302 0.0 1.6 0.00 0.00 0.00 57 1016.0
20260905164455 35 261 0.0 0.0 0.00 0.00 0.00 58 1016.3
20260905163950 35 293 0.0 1.6 0.00 0.00 0.00 58 1016.2
20260905163447 35 271 0.0 0.0 0.00 0.00 0.00 59 1016.2
20260905162943 35 259 0.0 0.0 0.00 0.00 0.00 60 1015.9
20260905162438 35 295 0.0 0.0 0.00 0.00 0.00 60 1016.3
20260905161933 35 272 0.0 0.0 0.00 0.00 0.00 61 1016.1
20260905161432 35 269 0.0 0.0 0.00 0.00 0.00 61 1016.3
20260905160930 35 250 0.0 0.0 0.00 0.00 0.00 62 1016.3
20260905160425 34 246 0.0 0.0 0.00 0.00 0.00 63 1016.2
20260905155918 35 306 0.0 0.0 0.00 0.00 0.00 63 1016.2
20260905155418 34 296 0.0 0.0 0.00 0.00 0.00 64 1016.2
20260905154917 33 239 0.0 0.0 0.00 0.00 0.00 65 1016.5
20260905154413 33 306 0.0 0.0 0.00 0.00 0.00 66 1016.3
20260905153909 34 277 0.0 0.0 0.00 0.00 0.00 66 1016.5
20260905153405 33 279 0.0 0.0 0.00 0.00 0.00 65 1016.5
20260905152904 33 25 0.0 0.0 0.00 0.00 0.00 67 1016.2
20260905152403 33 253 0.0 0.0 0.00 0.00 0.00 67 1016.2
20260905151859 33 265 0.0 0.0 0.00 0.00 0.00 66 1016.3
20260905151354 33 279 0.0 0.0 0.00 0.00 0.00 65 1016.1
20260905150849 33 247 0.0 0.0 0.00 0.00 0.00 69 1016.2
20260905150343 32 296 0.0 0.0 0.00 0.00 0.00 69 1016.2
20260905145841 32 306 0.0 0.0 0.00 0.00 0.00 71 1016.1
20260905145340 32 270 0.0 0.0 0.00 0.00 0.00 71 1016.1
20260905144839 32 252 0.0 0.0 0.00 0.00 0.00 73 1016.0
20260905144335 32 261 0.0 0.0 0.00 0.00 0.00 73 1016.0
20260905143833 31 243 0.0 0.0 0.00 0.00 0.00 75 1016.2
20260905143328 31 278 0.0 1.6 0.00 0.00 0.00 73 1016.2
20260905142828 31 324 0.0 0.0 0.00 0.00 0.00 78 1016.4
20260905142321 30 245 0.0 0.0 0.00 0.00 0.00 79 1016.4
20260905141818 30 241 0.0 0.0 0.00 0.00 0.00 78 1016.4
20260905141313 30 284 0.0 0.0 0.00 0.00 0.00 79 1016.2
20260905140809 30 282 0.0 0.0 0.00 0.00 0.00 78 1016.6
20260905140308 30 296 0.0 0.0 0.00 0.00 0.00 79 1016.4
20260905135807 30 278 0.0 0.0 0.00 0.00 0.00 78 1016.5
20260905135306 29 314 0.0 0.0 0.00 0.00 0.00 79 1016.5